STARLINK-11537, 62911

Orbit data source: Space-Track

STARLINK-11537, 62911 is a payload satellite owned by SpaceX/Seattle (US) in LEO that was launched on Sat, 08 Feb 2025 UTC via an FALCON 9 launch vehicle from the Air Force Eastern Test Range (AFETR). Payload-class satellites include a variety of spacecraft equipped with specific instruments for various scientific and technological missions. These include communications satellites like Starlink; space stations such as the ISS; scientific satellites like the Hubble; Earth observation satellites from companies like Planet Labs, Umbra, and HawkEye 360; GPS; miniature CubeSats for education and research; and military/defense satellites.

Loading next visibility...
Identifier
62911, 2025-027E
Orbit
LEO
Country
Flag of USUS
Related business
Manufacturer
SpaceX/Seattle
Mission
Operational Commercial Communications
Bus & Motor
STARLINK V2MD, Unknown motor
Mass
960 kg wet, ~910 kg dry
Launch date (UTC)
2025-02-08 (1 year ago)
Launch vehicle
FALCON 9
Launch site
Air Force Eastern Test Range (AFETR)
Object type
Payload
Rocket body
Debris
Shape & HBR
Box + 2 Pan, 18.1 m
Radar Cross Section
36.964 m², Large (>1 m²)

Expand to show TLE details & history
Last TLE update: 11 hours ago

TLE from 11 hours ago
0 STARLINK-11537
1 62911U 25027E   26036.78319488  .00094762  00000-0  73031-3 0  9995
2 62911  42.9985 180.0234 0002741 250.8342 109.2229 15.70944747 58178
Epoch: 2026-02-05T18:47Z
TLE epoch observation values (Epoch: 2026-02-05T18:47:48.037Z)
Latitude
-0.00003°
Longitude
122.14274°
Altitude
356.575 km
Speed
7.697 km/s
True Right ascension
12h 00m 05s
True Declination
0° 00' 00"
Sunlit
Object was in full shadow at epoch
Visualization orbit readout
Latitude
Unknown
Longitude
Unknown
Altitude
Unknown
Speed
Unknown
Apparent Right ascension
Unknown
Apparent Declination
Unknown
Sunlit
N/A
Visualization observer readout
Local Sidereal Time
07:24:36
Azimuth
Unknown
Elevation
Unknown
Doppler factor
Unknown
Orbital elements
Apogee altitude
360.024 km
Perigee altitude
356.331 km
Semi-major axis
6,736.315 km
Eccentricity
0.00027
Inclination
42.9985°
RAAN
180.0234°
Arg. of periapsis
250.8342°
True anomaly
109.25255°
Mean anomaly
109.2229°
Eccentric anomaly
109.23773°
Mean motion
3.92563 °/min
Orbital period
91.7 mins
BSTAR
0.00073031
Loading maneuver chart data...
Computing Atmospheric mass density...
Loading historical data...
Loading historical data...
Loading historical data...
Loading historical data...
Loading historical data...
Loading historical data...
Loading historical data...

Documentation

Showing up to 5 results
|